{"data":{"norad_id":47736,"intl_designator":"2021-017Q","name":"STARLINK-2147","alt_names":[],"object_type":"PAYLOAD","status":"ACTIVE","operator":null,"country":"US","launch_date":"2021-03-04","launch_site_code":"AFETR","launch_vehicle":null,"mission":null,"orbit_class":"UNKNOWN","rcs_meters":null,"size_class":null,"mass_kg":null,"dimensions":null,"purposes":["comms"],"wikipedia_slug":null,"has_3d_model":false,"image_url":null,"decayed_at":null,"tle_current":{"epoch":"2026-09-20T03:29:25.279008Z","epoch_age_seconds":57745,"freshness":"FRESH","line1":"1 47736U 21017Q   26263.14543147  .00085507  00000+0  54189-3 0  9990","line2":"2 47736  53.0690 349.8767 0005257 348.3812  11.7085 15.75825188308063","mean_motion":15.75825188,"eccentricity":0.0005257,"inclination_deg":53.069,"raan_deg":349.8767,"arg_perigee_deg":348.3812,"mean_anomaly_deg":11.7085,"bstar":0.00054189,"rev_number":30806,"period_min":91.380694442866,"perigee_km":338.75111251123,"apogee_km":345.81696319042,"semimajor_km":6720.4210378508,"source":"CELESTRAK","updated_at":"2026-09-20T09:00:38.600791Z"}}}